User: anonymous   Login
Location: Unspecified
(0.0000°N, 0.0000°E)
Time: 22:52:28
(UTC+00:00)
Language:

Kosmos-1655 - Orbit

View from above orbital plane
View from above orbital plane
View from above satellite
View from above satellite

Ground track
Ground track

The orbit data is extracted from the following two-line orbital elements,

1 15751U 85041A   17113.85705755 +.00000027 +00000-0 +13518-4 0  9993
2 15751 082.9520 006.0289 0027036 010.8970 036.2798 13.71689761596605
Epoch (UTC): 23 April 2017 20:34:09
Eccentricity: 0.0027036
inclination: 82.9520°
perigee height: 973 km
apogee height: 1013 km
right ascension of ascending node: 6.0289°
argument of perigee: 10.8970°
revolutions per day: 13.71689761
mean anomaly at epoch: 36.2798°
orbit number at epoch: 59660

The dashed part of the orbit path shows where the satellite is in the earth's shadow,  

DLR